User: anonymous   Login
Location: Caltech
(34.1382°N, 118.1253°W)
Time: 11:47:49
(UTC-07:00)
Language:

CZ-4B DEB - Orbit

View from above orbital plane
View from above orbital plane
View from above satellite
View from above satellite

Ground track
Ground track

The orbit data is extracted from the following two-line orbital elements,

1 27433U 02024D   16211.95280942 +.00000044 +00000-0 +48283-4 0  9994
2 27433 098.9244 179.7293 0013362 239.3215 120.6640 14.12088636731701
Epoch (UTC): 29 July 2016 22:52:02
Eccentricity: 0.0013362
inclination: 98.9244°
perigee height: 842 km
apogee height: 862 km
right ascension of ascending node: 179.7293°
argument of perigee: 239.3215°
revolutions per day: 14.12088636
mean anomaly at epoch: 120.6640°
orbit number at epoch: 73170

The dashed part of the orbit path shows where the satellite is in the earth's shadow,  

DLR